Location: *
(41.7492°S, 135.4150°W)
Time: 20:43:09
(UTC+00:00)

TIGRISAT - Pass Details

Date: 07 July 2022
Orbit: 604 x 686 km, 97.7° (Epoch: 14 August)

Event Time Altitude Azimuth Distance (km) Brightness Sun altitude
Rises 03:23:10 0° 345° (NNW) 2,973 ? -17.8°
Reaches altitude 10° 03:25:38 10° 333° (NNW) 2,085 ? -18.2°
Maximum altitude 03:29:32 27° 274° (W) 1,290 ? -18.9°
Drops below altitude 10° 03:33:32 10° 216° (SW) 2,148 ? -19.7°
Sets 03:36:07 0° 204° (SSW) 3,081 ? -20.1°
